Regional Weather Roundup
Issued by NWS Albany, NY

Current Version | Previous Version | Text Only | Print | Product List | Glossary On
Versions: 1 2 3 4 5 6 7 8 9 10 11 12 13 14 15 16 17 18 19 20 21 22 23 24 25 26 27 28 29 30 31 32 33 34 35 36 37 38 39 40 41 42 43 44 45 46 47 48 49 50
000
ASUS41 KALY 040310
RWRALY

NEW YORK STATE HOURLY WEATHER ROUNDUP
NATIONAL WEATHER SERVICE ALBANY NY
1100 PM EDT SUN MAY 03 2015

NOTE: "FAIR" INDICATES FEW OR NO CLOUDS BELOW 12,000 FEET WITH NO
SIGNIFICANT WEATHER AND/OR NO OBSTRUCTIONS TO VISIBILITY.

NYZ032-033-038>043-046>054-057>066-NYZ062>081-040400-
EAST


CITY           SKY/WX    TMP DP  RH WIND       PRES   REMARKS
ALBANY         PTCLDY    59  41  51 CALM      30.09R
GLENS FALLS    CLEAR     51  42  71 CALM      30.07R
POUGHKEEPSIE   CLEAR     65  39  38 S6        30.11R
NEWBURGH       CLEAR     64  41  42 VRB6      30.13R
MONTGOMERY     CLEAR     54  46  74 CALM      30.11R
WHITE PLAINS   CLEAR     54  46  74 CALM      30.14R
ISLIP          PTCLDY    52  47  83 SE6       30.15R
NEW YORK CITY  PTCLDY    60  46  59 S7        30.14R
CENTRAL PARK   CLEAR     64  41  42 CALM      30.16R
$$

NYZ005>009-017-018-044>046-055-056-040400-
CENTRAL


CITY           SKY/WX    TMP DP  RH WIND       PRES   REMARKS
FULTON         CLEAR     56  43  61 CALM      30.08R
SYRACUSE       PTCLDY    61  42  49 SE5       30.08S
ROME           CLEAR     53  41  63 CALM      30.11R
ELMIRA         PTCLDY    52  42  69 CALM      30.11R
BINGHAMTON     CLEAR     64  35  34 S3        30.12S
MONTICELLO     CLEAR     55  39  54 N3        30.15R
$$

NYZ026>034-041>043-040400-
NORTH


CITY           SKY/WX    TMP DP  RH WIND       PRES   REMARKS
WATERTOWN      PTCLDY    60  39  45 SW3       30.06R
FORT DRUM      NOT AVBL
MASSENA        CLEAR     61  39  44 SW6       30.04R
SARANAC LAKE   CLEAR     42  37  82 CALM      30.08S
PLATTSBURGH    CLEAR     59  41  51 SW3       30.04R
$$

NYZ001>004-010>016-019>021-040400-
WEST


CITY           SKY/WX    TMP DP  RH WIND       PRES   REMARKS
NIAGARA FALLS  PTCLDY    55  39  54 S5        30.07S
BUFFALO        PTCLDY    59  38  45 S6        30.08S
DUNKIRK        PTCLDY    52  44  74 S3        30.09S
JAMESTOWN      PTCLDY    61  36  39 CALM      30.14S
WELLSVILLE     MOCLDY    63  34  33 CALM      30.16R
ROCHESTER      PTCLDY    61  43  51 SW6       30.08S
PENN YAN       CLEAR     51  43  74 CALM      30.11R
$$

             KEY
       WCI = WIND CHILL INDEX
       VSB = VISIBILITY
       HX  = HEAT INDEX
$$



USA.gov is the U.S. government's official web portal to all federal, state and local government web resources and services.